CCM771 LFPO-LFKJ

Flight info

Callsign CCM771
Flight time 1h 21m
Altitude 37000
Route LATRA DCT LAMUT DCT UTUVA DCT TITVA DCT NOQAS DCT OTROT DCT RETNO DCT KOLON DCT OMARD M623 VAREK
Aircraft A320/M-SDE3FGHIRWY/LB1

Departure

Time 2026-05-04 07:29
Airport Paris-Orly Airport (LFPO)

Arrival

Time 2026-05-04 08:51
Airport Ajaccio Napoléon Bonaparte airport (LFKJ)
Time Latitude Longitude Altitude Speed Heading
2026-05-04 07:08 48.72623 2.36296 298 ft 0 kts 36°
2026-05-04 07:19 48.72610 2.36284 298 ft 4 kts 18°
2026-05-04 07:19 48.72585 2.36282 297 ft 4 kts 346°
2026-05-04 07:19 48.72573 2.36287 299 ft 1 kts 345°
2026-05-04 07:19 48.72572 2.36287 299 ft 0 kts 345°
2026-05-04 07:23 48.72579 2.36279 297 ft 4 kts 319°
2026-05-04 07:23 48.72577 2.36236 295 ft 3 kts 232°
2026-05-04 07:23 48.72541 2.36199 297 ft 9 kts 214°
2026-05-04 07:24 48.72502 2.36152 297 ft 5 kts 230°
2026-05-04 07:24 48.72487 2.36105 298 ft 7 kts 251°
2026-05-04 07:24 48.72474 2.36016 297 ft 10 kts 261°
2026-05-04 07:24 48.72474 2.35927 294 ft 6 kts 278°
2026-05-04 07:25 48.72481 2.35856 295 ft 10 kts 278°
2026-05-04 07:26 48.72134 2.35639 295 ft 12 kts 163°
2026-05-04 07:27 48.72061 2.35695 295 ft 11 kts 137°
2026-05-04 07:27 48.72023 2.35773 293 ft 7 kts 123°
2026-05-04 07:27 48.72004 2.35818 294 ft 3 kts 123°
2026-05-04 07:27 48.71982 2.35864 296 ft 7 kts 131°
2026-05-04 07:28 48.71958 2.35903 294 ft 5 kts 127°
2026-05-04 07:28 48.71960 2.35974 296 ft 6 kts 73°
2026-05-04 07:28 48.71984 2.36105 294 ft 36 kts 74°
2026-05-04 07:28 48.72118 2.36827 297 ft 103 kts 74°
2026-05-04 07:29 48.72364 2.38151 301 ft 155 kts 74°
2026-05-04 07:29 48.72687 2.39853 644 ft 170 kts 76°
2026-05-04 07:29 48.73005 2.41588 1307 ft 171 kts 77°
2026-05-04 07:29 48.73317 2.43322 2027 ft 173 kts 76°
2026-05-04 07:30 48.73659 2.45187 2347 ft 195 kts 76°
2026-05-04 07:30 48.74006 2.47306 2622 ft 219 kts 85°
2026-05-04 07:30 48.74097 2.49727 2994 ft 242 kts 88°
2026-05-04 07:30 48.74188 2.52377 3555 ft 258 kts 88°
2026-05-04 07:31 48.74280 2.55118 4391 ft 263 kts 90°
2026-05-04 07:31 48.73883 2.57799 5210 ft 266 kts 122°
2026-05-04 07:33 48.61390 2.60612 10765 ft 295 kts 206°
2026-05-04 07:33 48.59484 2.59157 10998 ft 318 kts 207°
2026-05-04 07:33 48.57440 2.57591 11214 ft 339 kts 207°
2026-05-04 07:33 48.55304 2.55946 11760 ft 348 kts 207°
2026-05-04 07:34 48.53131 2.54268 12441 ft 352 kts 207°
2026-05-04 07:34 48.50932 2.52572 13147 ft 356 kts 207°
2026-05-04 07:34 48.48715 2.50860 13826 ft 360 kts 207°
2026-05-04 07:34 48.46494 2.49173 14438 ft 363 kts 204°
2026-05-04 07:35 48.44105 2.47904 15056 ft 366 kts 197°
2026-05-04 07:35 48.41651 2.46799 15666 ft 369 kts 196°
2026-05-04 07:35 48.39181 2.45684 16258 ft 373 kts 196°
2026-05-04 07:35 48.36688 2.44556 16855 ft 376 kts 196°
2026-05-04 07:36 48.34176 2.43417 17460 ft 379 kts 196°
2026-05-04 07:36 48.31625 2.42350 18054 ft 382 kts 191°
2026-05-04 07:38 48.13604 2.48884 22127 ft 389 kts 163°
2026-05-04 07:38 48.11051 2.50230 22658 ft 390 kts 163°
2026-05-04 07:38 48.08493 2.51584 23160 ft 391 kts 163°
2026-05-04 07:38 48.05912 2.52923 23633 ft 392 kts 164°
2026-05-04 07:39 48.03318 2.54215 24044 ft 393 kts 165°
2026-05-04 07:39 48.00710 2.55484 24432 ft 394 kts 165°
2026-05-04 07:39 47.98095 2.56745 24846 ft 396 kts 164°
2026-05-04 07:39 47.95507 2.57996 25239 ft 397 kts 164°
2026-05-04 07:40 47.92876 2.59276 25637 ft 398 kts 164°
2026-05-04 07:40 47.90238 2.60569 26039 ft 400 kts 164°
2026-05-04 07:40 47.87590 2.61870 26404 ft 401 kts 164°
2026-05-04 07:40 47.84936 2.63174 26777 ft 403 kts 164°
2026-05-04 07:41 47.82267 2.64485 27145 ft 405 kts 164°
2026-05-04 07:41 47.79587 2.65798 27489 ft 406 kts 164°
2026-05-04 07:41 47.76897 2.67112 27795 ft 408 kts 164°
2026-05-04 07:41 47.74194 2.68430 28084 ft 410 kts 164°
2026-05-04 07:42 47.71475 2.69753 28373 ft 412 kts 164°
2026-05-04 07:42 47.68749 2.71077 28658 ft 413 kts 164°
2026-05-04 07:42 47.66011 2.72407 28943 ft 415 kts 164°
2026-05-04 07:42 47.63264 2.73743 29217 ft 416 kts 164°
2026-05-04 07:43 47.60508 2.75081 29478 ft 417 kts 164°
2026-05-04 07:43 47.57741 2.76421 29723 ft 419 kts 164°
2026-05-04 07:43 47.54965 2.77765 29965 ft 420 kts 164°
2026-05-04 07:43 47.52188 2.79111 30258 ft 419 kts 164°
2026-05-04 07:44 47.49422 2.80451 30574 ft 418 kts 165°
2026-05-04 07:44 47.46664 2.81786 30856 ft 416 kts 165°
2026-05-04 07:44 47.43910 2.83114 31131 ft 416 kts 165°
2026-05-04 07:44 47.41188 2.84422 31396 ft 415 kts 165°
2026-05-04 07:45 47.38442 2.85741 31668 ft 414 kts 165°
2026-05-04 07:45 47.35704 2.87059 31962 ft 414 kts 165°
2026-05-04 07:45 47.32967 2.88376 32284 ft 413 kts 165°
2026-05-04 07:45 47.30228 2.89691 32623 ft 412 kts 165°
2026-05-04 07:46 47.27538 2.90978 32943 ft 411 kts 166°
2026-05-04 07:46 47.24783 2.92293 33331 ft 411 kts 166°
2026-05-04 07:46 47.22103 2.93570 33674 ft 410 kts 166°
2026-05-04 07:46 47.19393 2.94862 33961 ft 409 kts 166°
2026-05-04 07:47 47.16689 2.96149 34205 ft 408 kts 166°
2026-05-04 07:47 47.13988 2.97433 34416 ft 408 kts 166°
2026-05-04 07:47 47.11281 2.98714 34612 ft 409 kts 167°
2026-05-04 07:49 46.92055 3.06604 35881 ft 412 kts 168°
2026-05-04 07:49 46.89291 3.07739 36042 ft 412 kts 168°
2026-05-04 07:49 46.86526 3.08873 36210 ft 413 kts 168°
2026-05-04 07:50 46.83753 3.10006 36367 ft 413 kts 168°
2026-05-04 07:50 46.81020 3.11122 36519 ft 414 kts 168°
2026-05-04 07:50 46.78248 3.12252 36671 ft 414 kts 168°
2026-05-04 07:50 46.75459 3.13390 36829 ft 415 kts 168°
2026-05-04 07:51 46.72679 3.14523 36967 ft 415 kts 169°
2026-05-04 07:51 46.70830 3.15275 36992 ft 417 kts 169°
2026-05-04 07:51 46.65236 3.17552 36992 ft 417 kts 168°
2026-05-04 07:52 46.59636 3.19830 36986 ft 418 kts 169°
2026-05-04 07:52 46.54034 3.22100 36987 ft 418 kts 169°
2026-05-04 07:54 46.31564 3.31131 37009 ft 420 kts 169°
2026-05-04 07:55 46.25931 3.33383 37008 ft 419 kts 169°
2026-05-04 07:55 46.20307 3.35628 37007 ft 419 kts 169°
2026-05-04 07:56 46.14683 3.37873 37006 ft 419 kts 169°
2026-05-04 07:56 46.09059 3.40111 36996 ft 419 kts 169°
2026-05-04 07:57 46.03481 3.42325 37001 ft 419 kts 169°
2026-05-04 07:57 45.97860 3.44550 37001 ft 418 kts 169°
2026-05-04 07:58 45.92242 3.46772 37001 ft 418 kts 169°
2026-05-04 07:58 45.86694 3.49200 36999 ft 423 kts 161°
2026-05-04 07:59 45.81592 3.53563 37001 ft 430 kts 152°
2026-05-04 07:59 45.76596 3.58284 37001 ft 430 kts 152°
2026-05-04 08:00 45.71597 3.62980 36999 ft 430 kts 152°
2026-05-04 08:02 45.51554 3.81744 37030 ft 431 kts 152°
2026-05-04 08:02 45.46553 3.86394 37031 ft 431 kts 152°
2026-05-04 08:03 45.41529 3.91049 37021 ft 430 kts 152°
2026-05-04 08:03 45.36652 3.96036 37034 ft 437 kts 142°
2026-05-04 08:04 45.32789 4.02826 37035 ft 445 kts 131°
2026-05-04 08:04 45.29158 4.09967 37023 ft 445 kts 131°
2026-05-04 08:05 45.25536 4.17030 37030 ft 446 kts 131°
2026-05-04 08:05 45.21881 4.24140 37019 ft 446 kts 131°
2026-05-04 08:06 45.18231 4.31245 37033 ft 446 kts 131°
2026-05-04 08:06 45.14578 4.38347 37048 ft 446 kts 131°
2026-05-04 08:08 44.98750 4.65110 37052 ft 443 kts 137°
2026-05-04 08:11 44.80516 4.94687 37048 ft 445 kts 136°
2026-05-04 08:11 44.74412 5.04518 37042 ft 446 kts 136°
2026-05-04 08:12 44.70314 5.11087 37050 ft 447 kts 137°
2026-05-04 08:12 44.66200 5.17646 37057 ft 447 kts 137°
2026-05-04 08:13 44.62086 5.24213 37063 ft 448 kts 137°
2026-05-04 08:13 44.57963 5.30777 37074 ft 448 kts 137°
2026-05-04 08:14 44.53829 5.37343 37074 ft 449 kts 137°
2026-05-04 08:16 44.37376 5.63635 37113 ft 455 kts 129°
2026-05-04 08:16 44.33826 5.70983 37115 ft 456 kts 129°
2026-05-04 08:17 44.30270 5.78316 37099 ft 456 kts 129°
2026-05-04 08:17 44.26711 5.85608 37086 ft 457 kts 129°
2026-05-04 08:19 44.12289 6.15043 37098 ft 461 kts 129°
2026-05-04 08:20 44.08652 6.22407 37102 ft 462 kts 129°
2026-05-04 08:20 44.05009 6.29775 37096 ft 462 kts 129°
2026-05-04 08:21 44.01354 6.37153 37103 ft 463 kts 129°
2026-05-04 08:21 43.97684 6.44531 37118 ft 464 kts 129°
2026-05-04 08:22 43.94031 6.51856 37102 ft 465 kts 129°
2026-05-04 08:24 43.79264 6.81319 37126 ft 466 kts 129°
2026-05-04 08:24 43.75557 6.88673 37107 ft 466 kts 129°
2026-05-04 08:25 43.71577 6.95679 37115 ft 459 kts 141°
2026-05-04 08:25 43.66679 7.01112 37120 ft 454 kts 148°
2026-05-04 08:27 43.46424 7.22155 36594 ft 459 kts 148°
2026-05-04 08:28 43.43878 7.24790 36027 ft 458 kts 148°
2026-05-04 08:28 43.41331 7.27423 35472 ft 457 kts 148°
2026-05-04 08:28 43.38786 7.30053 34910 ft 458 kts 148°
2026-05-04 08:28 43.36268 7.32652 34380 ft 459 kts 148°
2026-05-04 08:29 43.33707 7.35294 33833 ft 460 kts 148°
2026-05-04 08:29 43.31146 7.37934 33229 ft 461 kts 148°
2026-05-04 08:29 43.28580 7.40571 32648 ft 461 kts 147°
2026-05-04 08:31 43.10624 7.58645 28631 ft 444 kts 155°
2026-05-04 08:33 42.91128 7.68719 24719 ft 418 kts 163°
2026-05-04 08:33 42.88403 7.70066 24205 ft 415 kts 163°
2026-05-04 08:35 42.69892 7.79204 20274 ft 396 kts 163°
2026-05-04 08:35 42.67310 7.80474 19740 ft 394 kts 163°
2026-05-04 08:35 42.64742 7.81738 19214 ft 392 kts 163°
2026-05-04 08:35 42.62187 7.82993 18695 ft 389 kts 163°
2026-05-04 08:37 42.47169 7.90345 15463 ft 368 kts 162°
2026-05-04 08:37 42.44779 7.91511 15027 ft 363 kts 162°
2026-05-04 08:37 42.42415 7.92664 14596 ft 360 kts 162°
2026-05-04 08:38 42.40071 7.93805 14165 ft 357 kts 162°
2026-05-04 08:38 42.37743 7.94935 13729 ft 354 kts 162°
2026-05-04 08:38 42.35434 7.96060 13255 ft 352 kts 161°
2026-05-04 08:40 42.26451 8.14326 10657 ft 311 kts 114°
2026-05-04 08:40 42.25653 8.16966 10403 ft 299 kts 114°
2026-05-04 08:40 42.24875 8.19540 10073 ft 294 kts 114°
2026-05-04 08:41 42.24107 8.22086 9717 ft 291 kts 114°
2026-05-04 08:41 42.23343 8.24615 9352 ft 290 kts 114°
2026-05-04 08:41 42.22586 8.27119 9023 ft 286 kts 114°
2026-05-04 08:41 42.21838 8.29597 8707 ft 284 kts 114°
2026-05-04 08:42 42.21347 8.31221 8500 ft 282 kts 114°
2026-05-04 08:42 42.20359 8.34475 8092 ft 279 kts 114°
2026-05-04 08:42 42.19873 8.36072 7897 ft 277 kts 114°
2026-05-04 08:42 42.19141 8.38474 7596 ft 275 kts 114°
2026-05-04 08:43 42.18417 8.40855 7304 ft 273 kts 114°
2026-05-04 08:43 42.17698 8.43218 7014 ft 271 kts 114°
2026-05-04 08:43 42.16984 8.45565 6666 ft 270 kts 114°
2026-05-04 08:43 42.16225 8.47870 6267 ft 267 kts 121°
2026-05-04 08:44 42.15127 8.49865 5863 ft 264 kts 135°
2026-05-04 08:44 42.13754 8.51475 5545 ft 259 kts 141°
2026-05-04 08:46 42.04998 8.61306 3787 ft 222 kts 141°
2026-05-04 08:46 42.03821 8.62627 3538 ft 218 kts 141°
2026-05-04 08:46 42.02671 8.63917 3287 ft 211 kts 141°
2026-05-04 08:46 42.01623 8.65214 3069 ft 199 kts 130°
2026-05-04 08:47 42.00902 8.66769 2989 ft 195 kts 115°
2026-05-04 08:47 42.00533 8.68513 3008 ft 195 kts 101°
2026-05-04 08:47 42.00309 8.70283 3006 ft 195 kts 102°
2026-05-04 08:47 42.00073 8.72075 2953 ft 194 kts 102°
2026-05-04 08:48 41.99813 8.73878 2750 ft 197 kts 103°
2026-05-04 08:48 41.99528 8.75637 2550 ft 186 kts 103°
2026-05-04 08:48 41.99257 8.77267 2341 ft 173 kts 104°
2026-05-04 08:48 41.98951 8.78801 2011 ft 168 kts 106°
2026-05-04 08:49 41.98526 8.80207 1818 ft 153 kts 123°
2026-05-04 08:50 41.93100 8.80686 102 ft 137 kts 206°
2026-05-04 08:50 41.92271 8.80166 24 ft 119 kts 205°
2026-05-04 08:51 41.91757 8.79848 19 ft 44 kts 205°
2026-05-04 08:51 41.91511 8.79692 19 ft 31 kts 207°
2026-05-04 08:51 41.91346 8.79590 20 ft 22 kts 203°
2026-05-04 08:51 41.91248 8.79511 19 ft 11 kts 237°
2026-05-04 08:52 41.91248 8.79439 19 ft 7 kts 300°
2026-05-04 08:52 41.91282 8.79407 20 ft 5 kts 332°
2026-05-04 08:52 41.91312 8.79386 20 ft 4 kts 332°
2026-05-04 08:52 41.91351 8.79360 20 ft 11 kts 334°
2026-05-04 08:53 41.91444 8.79334 20 ft 14 kts
2026-05-04 08:54 41.91891 8.79552 22 ft 3 kts 326°
2026-05-04 08:55 41.91907 8.79542 21 ft 2 kts 339°
2026-05-04 08:55 41.91909 8.79541 21 ft 0 kts 339°